Location: Newark
(58.9986°N, 38.5006°E)
Time: 08:54:34
(UTC+00:00)

Explorer 7 - Pass Details

Date: 28 April 2021
Orbit: 484 x 677 km, 50.3° (Epoch: 11 May)

Event Time Altitude Azimuth Distance (km) Brightness Sun altitude
Rises 19:34:13 0° 265° (W) 2,697 10.6 -13.3°
Reaches altitude 10° 19:37:25 10° 237° (WSW) 1,847 9.4 -13.5°
Maximum altitude 19:39:25 13° 209° (SSW) 1,675 8.9 -13.6°
Enters shadow 19:40:05 13° 199° (SSW) 1,706 8.9 -13.6°
